Weather History for Huron, SD

Change the Weather History Date:

Thursday, October 17, 2013

  Actual Average Record
Temperature  
Mean Temperature 38 °F 48 °F  
Max Temperature 46 °F 60 °F 86 °F (1910)
Min Temperature 30 °F 35 °F 15 °F (1948)
Degree Days  
Heating Degree Days 27 18  
Month to date heating degree days 206 243  
Since 1 July heating degree days 281 439  
Cooling Degree Days 0 0  
Month to date cooling degree days 0 0  
Year to date cooling degree days 848 738  
Moisture  
Dew Point 35 °F    
Average Humidity 81    
Maximum Humidity 92    
Minimum Humidity 70    
Precipitation  
Precipitation 0.08 in 0.06 in 0.97 in (1996)
Month to date precipitation 4.97 1.09  
Year to date precipitation 23.58 20.81  
Snow  
Snow 0.00 in 0.00 in 1.80 in (1990)
Month to date snowfall 0.0 0.3  
Since 1 July snowfall 0.0 0.3  
Since 1 September snowfall 0.0 0.3  
Snow Depth 0.00 in    
Sea Level Pressure  
Sea Level Pressure 29.97 in    
Wind  
Wind Speed 10 mph (NW)    
Max Wind Speed 24 mph    
Max Gust Speed 30 mph    
Visibility 10 miles    
Events Rain    
T = Trace of Precipitation, MM = Missing Value Source: NWS Daily Summary

Daily Weather History Graph

Daily Weather History Graph

Search for Another Location

Airport:

Trip Planner

Search our weather history database for the weather conditions in past years. The results will help you decide how hot, cold, wet, or windy it might be!

Date:

Astronomy

Oct. 17, 2013 Rise Set
Actual Time 7:50 AM CDT 6:44 PM CDT
Civil Twilight 7:21 AM CDT 7:14 PM CDT
Nautical Twilight 6:47 AM CDT 7:47 PM CDT
Astronomical Twilight 6:14 AM CDT 8:21 PM CDT
Moon 6:01 PM CDT (10/17) 6:22 AM CDT (10/17)
Length of Visible Light 11h 52m
Length of Day
10h 54m
Waxing Gibbous, 98% of the Moon is Illuminated
Oct 17
Waxing Gibbous
Oct 18
Full
Oct 26
Last Quarter
Nov 3
New
Nov 9
First Quarter

Hourly Weather History & Observations

Time (CDT) Temp. Windchill Dew Point Humidity Pressure Visibility Wind Dir Wind Speed Gust Speed Precip Events Conditions
12:55 AM 42.1 °F 39.2 °F 34.0 °F 73% 29.87 in 10.0 mi SSW 4.6 mph - N/A   Clear
1:55 AM 41.0 °F 39.0 °F 34.0 °F 76% 29.87 in 10.0 mi South 3.5 mph - N/A   Clear
2:55 AM 37.9 °F 33.5 °F 33.1 °F 83% 29.87 in 10.0 mi South 5.8 mph - N/A   Clear
3:55 AM 37.9 °F - 32.0 °F 79% 29.86 in 10.0 mi Calm Calm - N/A   Clear
4:55 AM 34.0 °F 29.8 °F 30.0 °F 85% 29.86 in 10.0 mi WSW 4.6 mph - N/A   Clear
5:55 AM 36.0 °F 33.3 °F 32.0 °F 86% 29.85 in 10.0 mi West 3.5 mph - N/A   Clear
6:55 AM 33.1 °F 26.9 °F 30.0 °F 89% 29.87 in 10.0 mi WNW 6.9 mph - N/A   Scattered Clouds
7:55 AM 36.0 °F 30.3 °F 33.1 °F 89% 29.89 in 10.0 mi WNW 6.9 mph - N/A   Mostly Cloudy
8:55 AM 39.9 °F 32.1 °F 37.0 °F 89% 29.91 in 10.0 mi NW 13.8 mph - N/A   Mostly Cloudy
9:55 AM 45.0 °F 38.9 °F 41.0 °F 86% 29.94 in 10.0 mi NNW 12.7 mph - N/A   Mostly Cloudy
10:02 AM 44.6 °F 38.1 °F 41.0 °F 87% 29.91 in 10.0 mi NW 13.8 mph - N/A   Overcast
10:55 AM 45.0 °F 37.6 °F 39.9 °F 82% 29.95 in 10.0 mi North 17.3 mph 24.2 mph N/A   Overcast
11:55 AM 45.0 °F 36.4 °F 37.9 °F 76% 29.97 in 10.0 mi North 23.0 mph 26.5 mph N/A   Overcast
12:46 PM 42.8 °F 34.8 °F 39.2 °F 87% 29.97 in 10.0 mi NNW 17.3 mph 25.3 mph 0.00 in Rain Light Rain
12:55 PM 42.1 °F 33.1 °F 39.0 °F 89% 30.00 in 10.0 mi NNW 20.7 mph 27.6 mph 0.00 in Rain Light Rain
1:45 PM 41.0 °F 32.5 °F 37.4 °F 87% 29.98 in 8.0 mi NNW 17.3 mph 24.2 mph 0.04 in Rain Light Rain
1:55 PM 42.1 °F 33.9 °F 37.9 °F 85% 30.01 in 7.0 mi NNW 17.3 mph - 0.05 in Rain Rain
2:19 PM 41.0 °F 32.2 °F 37.4 °F 87% 29.99 in 10.0 mi NNW 18.4 mph 25.3 mph 0.02 in Rain Light Rain
2:55 PM 42.1 °F 33.9 °F 37.9 °F 85% 30.02 in 10.0 mi NNW 17.3 mph 23.0 mph 0.02 in Rain Light Rain
3:27 PM 42.8 °F 34.5 °F 37.4 °F 81% 29.98 in 10.0 mi NNW 18.4 mph - 0.00 in   Overcast
3:55 PM 42.1 °F 35.2 °F 37.9 °F 85% 30.03 in 10.0 mi North 12.7 mph 23.0 mph 0.00 in Rain Light Rain
4:29 PM 42.8 °F 35.8 °F 37.4 °F 81% 30.00 in 10.0 mi NNW 13.8 mph - 0.01 in   Overcast
4:55 PM 43.0 °F 35.7 °F 37.0 °F 80% 30.03 in 10.0 mi NNW 15.0 mph - 0.01 in   Overcast
5:55 PM 42.1 °F 36.1 °F 37.0 °F 82% 30.04 in 10.0 mi NW 10.4 mph - N/A   Overcast
6:55 PM 42.1 °F 35.2 °F 35.1 °F 76% 30.06 in 10.0 mi NW 12.7 mph - N/A   Overcast
7:55 PM 41.0 °F 33.9 °F 33.1 °F 73% 30.06 in 10.0 mi NW 12.7 mph - N/A   Overcast
8:55 PM 37.0 °F 31.0 °F 32.0 °F 82% 30.08 in 10.0 mi WNW 8.1 mph - N/A   Partly Cloudy
9:55 PM 34.0 °F 28.0 °F 30.0 °F 85% 30.09 in 10.0 mi West 6.9 mph - N/A   Clear
10:55 PM 30.9 °F 25.2 °F 28.0 °F 89% 30.09 in 10.0 mi West 5.8 mph - N/A   Clear
11:55 PM 30.9 °F 25.2 °F 27.0 °F 85% 30.08 in 10.0 mi WNW 5.8 mph - N/A   Clear